Weather History for Olathe, KS

Change the Weather History Date:

Saturday, July 13, 2013

  Actual Average Record
Temperature  
Mean Temperature 79 °F 78 °F  
Max Temperature 89 °F 88 °F 113 °F (1954)
Min Temperature 68 °F 69 °F 53 °F (1964)
Degree Days  
Heating Degree Days 0 0  
Month to date heating degree days 0 0  
Since 1 June heating degree days 14 8  
Since 1 July heating degree days 0 0  
Cooling Degree Days 14 13  
Month to date cooling degree days 166 162  
Year to date cooling degree days 545 523  
Since 1 June cooling degree days 444 419  
Growing Degree Days 28 (Base 50)    
Moisture  
Dew Point 61 °F    
Average Humidity 57    
Maximum Humidity 68    
Minimum Humidity 46    
Precipitation  
Precipitation 0.00 in 0.13 in 3.51 in (1963)
Month to date precipitation 0.54 1.64  
Year to date precipitation 22.37 22.16  
Sea Level Pressure  
Sea Level Pressure 29.98 in    
Wind  
Wind Speed 9 mph (SE)    
Max Wind Speed 16 mph    
Max Gust Speed 20 mph    
Visibility 10 miles    
Events      
T = Trace of Precipitation, MM = Missing Value Source: NWS Daily Summary

Daily Weather History Graph

Daily Weather History Graph

Search for Another Location

Airport:

Trip Planner

Search our weather history database for the weather conditions in past years. The results will help you decide how hot, cold, wet, or windy it might be!

Date:

Astronomy

Jul. 13, 2013 Rise Set
Actual Time 6:04 AM CDT 8:44 PM CDT
Civil Twilight 5:33 AM CDT 9:15 PM CDT
Nautical Twilight 4:54 AM CDT 9:54 PM CDT
Astronomical Twilight 4:10 AM CDT 10:38 PM CDT
Moon 11:18 AM CDT (7/13) 11:29 PM CDT (7/13)
Length of Visible Light 15h 41m
Length of Day
14h 39m
Waxing Crescent, 26% of the Moon is Illuminated
Jul 13
Waxing Crescent
Jul 15
First Quarter
Jul 22
Full
Jul 29
Last Quarter
Aug 6
New

Hourly Weather History & Observations

Time (CDT) Temp. Heat Index Dew Point Humidity Pressure Visibility Wind Dir Wind Speed Gust Speed Precip Events Conditions
12:53 AM 73.9 °F - 57.0 °F 55% 29.98 in 10.0 mi SE 10.4 mph - N/A   Clear
1:53 AM 73.0 °F - 57.0 °F 57% 29.99 in 10.0 mi SSE 10.4 mph - N/A   Clear
2:53 AM 72.0 °F - 57.9 °F 61% 29.99 in 10.0 mi SE 9.2 mph - N/A   Clear
3:53 AM 71.1 °F - 57.0 °F 61% 29.99 in 10.0 mi SE 9.2 mph - N/A   Clear
4:53 AM 70.0 °F - 57.0 °F 63% 29.97 in 10.0 mi SE 10.4 mph - N/A   Clear
5:53 AM 69.1 °F - 55.9 °F 63% 29.99 in 10.0 mi SSE 8.1 mph - N/A   Clear
6:53 AM 68.0 °F - 57.0 °F 68% 30.00 in 10.0 mi SSE 8.1 mph - N/A   Clear
7:53 AM 70.0 °F - 57.0 °F 63% 30.01 in 10.0 mi SSE 10.4 mph - N/A   Clear
8:53 AM 73.0 °F - 59.0 °F 61% 30.02 in 10.0 mi SSE 10.4 mph - N/A   Clear
9:53 AM 78.1 °F - 62.1 °F 58% 30.02 in 10.0 mi South 9.2 mph - N/A   Clear
10:53 AM 81.0 °F 81.9 °F 62.1 °F 52% 30.01 in 10.0 mi South 6.9 mph - N/A   Clear
11:53 AM 84.9 °F 85.9 °F 63.0 °F 48% 30.00 in 10.0 mi SSE 10.4 mph - N/A   Clear
12:53 PM 86.0 °F 87.3 °F 64.0 °F 48% 29.99 in 10.0 mi South 8.1 mph - N/A   Clear
1:53 PM 87.1 °F 88.9 °F 64.9 °F 48% 29.98 in 10.0 mi SSE 6.9 mph - N/A   Clear
2:53 PM 88.0 °F 90.3 °F 66.0 °F 48% 29.97 in 10.0 mi ESE 5.8 mph - N/A   Clear
3:53 PM 89.1 °F 91.3 °F 66.0 °F 46% 29.97 in 10.0 mi East 10.4 mph - N/A   Clear
4:53 PM 84.0 °F 85.8 °F 64.9 °F 53% 29.96 in 10.0 mi ESE 10.4 mph - N/A   Clear
5:53 PM 82.0 °F 84.1 °F 66.0 °F 58% 29.95 in 10.0 mi ESE 12.7 mph - N/A   Clear
6:53 PM 81.0 °F 82.7 °F 64.9 °F 58% 29.94 in 10.0 mi ESE 9.2 mph 18.4 mph N/A   Partly Cloudy
7:53 PM 80.1 °F 81.7 °F 64.0 °F 58% 29.94 in 10.0 mi SE 10.4 mph - N/A   Clear
8:53 PM 79.0 °F - 63.0 °F 58% 29.95 in 10.0 mi SE 8.1 mph - N/A   Clear
9:53 PM 77.0 °F - 62.1 °F 60% 29.98 in 10.0 mi ESE 6.9 mph - N/A   Clear
10:53 PM 75.9 °F - 60.1 °F 58% 30.00 in 10.0 mi ESE 9.2 mph - N/A   Clear
11:53 PM 73.9 °F - 61.0 °F 64% 30.00 in 10.0 mi SE 9.2 mph - N/A   Clear